Location: Balaclava NSW 2575, Australia
(34.4510°S, 150.4953°E)
Time: 21:23:07
(UTC+10:00)

Transit 2A - All Passes

Search period start: 13 June 2021 00:00
Search period end: 23 June 2021 00:00
Orbit: 601 x 958 km, 66.7° (Epoch: 13 June)

Date Brightness Start Highest point End Pass type
(mag) Time Alt. Az. Time Alt. Az. Time Alt. Az.
13 Jun - 04:59:25 10° N 05:05:11 42° ENE 05:11:10 10° SE visible
13 Jun - 06:43:04 10° WNW 06:48:33 31° SW 06:54:10 10° S daylight
13 Jun - 13:51:48 10° S 13:55:32 17° SE 13:59:03 10° E daylight
13 Jun - 15:33:46 10° SSW 15:39:22 64° WNW 15:44:21 10° NNE daylight
14 Jun - 04:25:58 10° NNE 04:31:10 29° ENE 04:36:33 10° SE visible
14 Jun - 06:08:17 10° NW 06:14:11 43° WSW 06:20:16 10° SSE visible
14 Jun - 13:18:40 10° SSE 13:20:58 12° SE 13:23:11 10° ESE daylight
14 Jun - 14:59:31 10° SSW 15:05:14 84° ESE 15:10:17 10° NNE daylight
15 Jun - 03:52:55 10° NNE 03:57:12 20° ENE 04:01:36 10° ESE visible
15 Jun - 05:33:44 10° NW 05:39:54 61° WSW 05:46:15 10° SSE visible
15 Jun - 07:22:41 10° WSW 07:24:26 11° SW 07:26:11 10° SSW daylight
15 Jun - 14:25:24 10° SSW 14:31:00 55° ESE 14:35:59 10° NE daylight
15 Jun - 16:10:24 10° WSW 16:13:28 15° WNW 16:16:24 10° NW daylight
16 Jun - 03:20:43 10° NE 03:23:18 13° E 03:25:54 10° ESE visible
16 Jun - 04:59:26 10° NNW 05:05:40 86° WSW 05:12:07 10° SSE visible
16 Jun - 06:46:11 10° W 06:49:49 16° SW 06:53:29 10° S daylight
16 Jun - 13:51:24 10° S 13:56:41 37° SE 14:01:25 10° ENE daylight
16 Jun - 15:35:14 10° SW 15:39:34 24° WNW 15:43:34 10° NNW daylight
17 Jun - 04:25:22 10° NNW 04:31:30 67° ENE 04:37:52 10° SSE visible
17 Jun - 06:10:36 10° W 06:15:18 21° SW 06:20:03 10° S visible
17 Jun - 13:17:34 10° S 13:22:17 26° SE 13:26:36 10° ENE daylight
17 Jun - 15:00:32 10° SW 15:05:36 37° WNW 15:10:10 10° N daylight
18 Jun - 03:51:32 10° N 03:57:25 46° ENE 04:03:29 10° SE visible
18 Jun - 05:35:27 10° WNW 05:40:51 29° SW 05:46:20 10° S visible
18 Jun - 12:43:56 10° S 12:47:48 18° SE 12:51:26 10° E daylight
18 Jun - 14:26:04 10° SW 14:31:33 58° WNW 14:36:25 10° N daylight
19 Jun - 03:18:00 10° NNE 03:23:23 31° ENE 03:28:54 10° SE visible
19 Jun - 05:00:36 10° NW 05:06:28 40° WSW 05:12:27 10° SSE visible
19 Jun - 12:10:43 10° SSE 12:13:15 13° SE 12:15:41 10° ESE daylight
19 Jun - 13:51:47 10° SSW 13:57:25 90° W 14:02:25 10° NNE daylight
20 Jun - 02:44:51 10° NNE 02:49:24 21° ENE 02:54:02 10° ESE visible
20 Jun - 04:26:01 10° NW 04:32:10 57° WSW 04:38:28 10° SSE visible
20 Jun - 06:15:51 10° SW 06:16:46 10° SW 06:17:41 10° SSW visible
20 Jun - 13:17:38 10° SSW 13:23:12 60° ESE 13:28:09 10° NE daylight
20 Jun - 15:03:00 10° WSW 15:05:36 14° WNW 15:08:06 10° NW daylight
21 Jun - 02:12:24 10° NE 02:15:28 14° ENE 02:18:34 10° ESE night (unlit)
21 Jun - 03:51:40 10° NNW 03:57:55 81° WSW 04:04:22 10° SSE visible
21 Jun - 05:38:46 10° WSW 05:42:08 15° SW 05:45:30 10° SSW visible
21 Jun - 12:43:38 10° SSW 12:48:54 40° ESE 12:53:39 10° NE daylight
21 Jun - 14:27:39 10° SW 14:31:42 22° WNW 14:35:28 10° NNW daylight
22 Jun - 03:17:32 10° NNW 03:23:45 72° ENE 03:30:08 10° SSE visible
22 Jun - 05:03:04 10° W 05:07:36 20° SW 05:12:09 10° S visible
22 Jun - 12:09:46 10° S 12:14:32 27° SE 12:18:53 10° ENE daylight
22 Jun - 13:52:51 10° SW 13:57:45 34° WNW 14:02:10 10° N daylight
